Regional Weather Roundup
Issued by NWS

Home | Current Version | Previous Version | Text Only | Print | Product List | Glossary Off
Versions: 1 2 3 4 5 6 7 8 9 10 11 12 13 14 15 16 17 18 19 20 21 22 23 24 25 26 27 28 29 30 31 32 33 34 35 36 37 38 39 40 41 42 43 44 45 46 47 48 49 50

000
ASUS45 KBOI 281210
RWRID
WEATHER ROUNDUP FOR IDAHO
NATIONAL WEATHER SERVICE BOISE ID
500 AM MST FRI NOV 28 2014

NOTE: "FAIR" INDICATES FEW OR NO CLOUDS BELOW 12000 FEET
WITH NO SIGNIFICANT WEATHER AND/OR OBSTRUCTIONS TO VISIBILITY

IDZ012-014-281300-
SOUTHWEST IDAHO


CITY           SKY/WX    TMP DP  RH WIND       PRES   REMARKS
BOISE          CLOUDY    41  38  89 CALM      29.89F
CALDWELL       NOT AVBL
MOUNTAIN HOME  CLOUDY    39  39 100 E7        29.90F WCI  34
$$

IDZ016-017-281300-
SOUTHCENTRAL IDAHO


CITY           SKY/WX    TMP DP  RH WIND       PRES   REMARKS
BURLEY         CLOUDY    53  23  31 SW20      29.93F
JEROME         CLOUDY    45  26  47 E6        29.95F
TWIN FALLS     CLOUDY    54  25  32 S14       29.93F
$$

IDZ019>023-281300-
SOUTHEAST IDAHO


CITY           SKY/WX    TMP DP  RH WIND       PRES   REMARKS
IDAHO FALLS    CLOUDY    36  27  69 SW10      29.94F WCI  28
POCATELLO      CLEAR     43  25  49 N5        29.95F
REXBURG        CLOUDY    44  26  49 SW9       29.92F
$$

IDZ006-010-011-018-031-032-281300-
CENTRAL IDAHO MOUNTAINS


CITY           SKY/WX    TMP DP  RH WIND       PRES   REMARKS
MCCALL         CLOUDY    37  35  92 E8        29.88F WCI  31
HAILEY         CLOUDY    34  32  93 NW5       29.98F WCI  30
STANLEY          N/A     45  14  28 S6        29.93F
SALMON         CLOUDY    48  30  49 SW9G17    29.79F
CHALLIS        MOCLDY    34  27  75 CALM      29.86F
$$

IDZ002-004-006-007-026-281300-
NORTHERN IDAHO


CITY           SKY/WX    TMP DP  RH WIND       PRES   REMARKS
LEWISTON       CLOUDY    57  44  62 S9        29.69F
LOWELL           N/A     42  40  92 N5        29.80F
COEUR D`ALENE  CLOUDY    48  39  71 W12G18    29.62F
MULLAN PASS    CLOUDY    36  35  96 SW15G30   29.65F WCI  27
$$



USA.gov is the U.S. government's official web portal to all federal, state and local government web resources and services.